APG113 RPSP-RPLL

Flight info

Callsign APG113
Flight time N/A
Altitude 34000
Route LAMOK2R LAMOK B473 LAIYA LAIYA5R
Aircraft A320/M-SDE3FGHIRWY/LB1

Departure

Time 2026-04-24 13:00
Airport Bohol-Panglao International Airport (RPSP)

Arrival

Time N/A
Airport Ninoy Aquino International Airport (RPLL)
Time Latitude Longitude Altitude Speed Heading
2026-04-24 13:00 9.40773 123.68115 3937 ft 229 kts 333°
2026-04-24 13:00 9.42091 123.67216 3938 ft 228 kts 332°
2026-04-24 13:00 9.43415 123.66333 3938 ft 227 kts 336°
2026-04-24 13:01 9.44876 123.65938 3932 ft 215 kts
2026-04-24 13:01 9.46371 123.66038 3933 ft 215 kts 17°
2026-04-24 13:01 9.47773 123.66527 3933 ft 212 kts 29°
2026-04-24 13:01 9.49080 123.67215 3937 ft 212 kts 35°
2026-04-24 13:02 9.50315 123.68024 3936 ft 211 kts 38°
2026-04-24 13:02 9.51516 123.68873 3936 ft 210 kts 42°
2026-04-24 13:02 9.52508 123.69937 3936 ft 208 kts 55°
2026-04-24 13:02 9.53349 123.71125 3940 ft 208 kts 59°
2026-04-24 13:03 9.54143 123.72345 3940 ft 207 kts 59°
2026-04-24 13:03 9.54955 123.73550 3938 ft 207 kts 57°
2026-04-24 13:03 9.55813 123.74723 3936 ft 207 kts 56°
2026-04-24 13:03 9.56675 123.75889 3939 ft 206 kts 56°
2026-04-24 13:04 9.57534 123.77052 3932 ft 206 kts 56°
2026-04-24 13:04 9.58171 123.78320 3933 ft 202 kts 82°
2026-04-24 13:04 9.57934 123.79700 3935 ft 204 kts 119°
2026-04-24 13:04 9.56871 123.80653 3938 ft 212 kts 156°
2026-04-24 13:05 9.55395 123.80774 3937 ft 220 kts 192°
2026-04-24 13:05 9.54076 123.79987 3937 ft 226 kts 225°
2026-04-24 13:05 9.53066 123.78758 3935 ft 228 kts 233°
2026-04-24 13:05 9.52115 123.77472 3937 ft 228 kts 233°
2026-04-24 13:06 9.51174 123.76181 3942 ft 228 kts 233°
2026-04-24 13:06 9.50236 123.74891 3938 ft 227 kts 233°
2026-04-24 13:06 9.49302 123.73600 3936 ft 227 kts 235°
2026-04-24 13:06 9.48711 123.72144 3932 ft 225 kts 268°
2026-04-24 13:07 9.49030 123.70638 3931 ft 219 kts 305°
2026-04-24 13:07 9.50126 123.69645 3937 ft 211 kts 343°
2026-04-24 13:07 9.51528 123.69535 3935 ft 202 kts 20°
2026-04-24 13:07 9.52663 123.70295 3944 ft 197 kts 50°
2026-04-24 13:08 9.53516 123.71385 3938 ft 198 kts 57°
2026-04-24 13:08 9.54272 123.72542 3938 ft 197 kts 59°
2026-04-24 13:08 9.55041 123.73691 3943 ft 198 kts 56°
2026-04-24 13:09 9.56651 123.75936 3943 ft 197 kts 56°
2026-04-24 13:09 9.57455 123.77053 3943 ft 196 kts 56°
2026-04-24 13:09 9.58091 123.78250 3934 ft 193 kts 80°
2026-04-24 13:09 9.57892 123.79573 3933 ft 196 kts 118°
2026-04-24 13:10 9.56872 123.80482 3935 ft 203 kts 156°
2026-04-24 13:10 9.55455 123.80552 3937 ft 212 kts 194°
2026-04-24 13:10 9.54239 123.79747 3943 ft 216 kts 226°
2026-04-24 13:10 9.53289 123.78557 3942 ft 218 kts 232°
2026-04-24 13:11 9.52390 123.77323 3936 ft 217 kts 233°
2026-04-24 13:11 9.51500 123.76084 3942 ft 218 kts 233°
2026-04-24 13:11 9.50613 123.74846 3940 ft 217 kts 233°
2026-04-24 13:11 9.49753 123.73593 3939 ft 217 kts 242°
2026-04-24 13:12 9.49473 123.72124 3930 ft 214 kts 281°
2026-04-24 13:12 9.50096 123.70812 3932 ft 206 kts 320°
2026-04-24 13:12 9.51328 123.70194 3935 ft 197 kts 359°
2026-04-24 13:12 9.52603 123.70499 3934 ft 189 kts 38°
2026-04-24 13:13 9.53511 123.71444 3944 ft 188 kts 53°
2026-04-24 13:13 9.54294 123.72496 3943 ft 187 kts 55°
2026-04-24 13:13 9.55053 123.73569 3942 ft 188 kts 57°
2026-04-24 13:13 9.55761 123.74676 3941 ft 187 kts 58°
2026-04-24 13:14 9.56503 123.75756 3945 ft 187 kts 56°
2026-04-24 13:14 9.57260 123.76824 3947 ft 186 kts 56°
2026-04-24 13:14 9.58017 123.77882 3908 ft 184 kts 56°
2026-04-24 13:14 9.58762 123.78910 3750 ft 180 kts 55°
2026-04-24 13:15 9.59507 123.79932 3505 ft 180 kts 55°
2026-04-24 13:15 9.60253 123.80956 3282 ft 181 kts 54°
2026-04-24 13:15 9.60996 123.81975 3079 ft 179 kts 54°
2026-04-24 13:15 9.61732 123.82984 2883 ft 177 kts 54°
2026-04-24 13:16 9.62460 123.83984 2716 ft 176 kts 54°
2026-04-24 13:16 9.63180 123.84987 2644 ft 176 kts 55°
2026-04-24 13:16 9.63894 123.85991 2650 ft 175 kts 55°
2026-04-24 13:16 9.64607 123.86999 2646 ft 176 kts 54°
2026-04-24 13:17 9.65323 123.88004 2648 ft 176 kts 54°
2026-04-24 13:17 9.66045 123.89008 2651 ft 176 kts 54°
2026-04-24 13:17 9.66772 123.90006 2650 ft 176 kts 54°
2026-04-24 13:17 9.67495 123.91009 2649 ft 176 kts 54°
2026-04-24 13:18 9.68223 123.92004 2647 ft 175 kts 50°
2026-04-24 13:18 9.69277 123.92607 2653 ft 181 kts 12°
2026-04-24 13:18 9.70530 123.92375 2652 ft 192 kts 334°
2026-04-24 13:18 9.71444 123.91382 2677 ft 193 kts 304°
2026-04-24 13:19 9.72010 123.90209 2660 ft 178 kts 298°
2026-04-24 13:19 9.72478 123.89103 2644 ft 164 kts 297°
2026-04-24 13:19 9.72724 123.88010 2631 ft 156 kts 275°
2026-04-24 13:19 9.72569 123.86954 2647 ft 150 kts 253°
2026-04-24 13:20 9.72081 123.86034 2638 ft 148 kts 229°
2026-04-24 13:20 9.71308 123.85370 2648 ft 145 kts 207°
2026-04-24 13:20 9.70438 123.84849 2594 ft 146 kts 206°
2026-04-24 13:20 9.69551 123.84353 2475 ft 145 kts 203°
2026-04-24 13:21 9.68678 123.83810 2336 ft 153 kts 214°
2026-04-24 13:21 9.67797 123.83222 2186 ft 151 kts 205°
2026-04-24 13:21 9.66865 123.82738 1997 ft 151 kts 201°
2026-04-24 13:21 9.65948 123.82203 1762 ft 156 kts 210°
2026-04-24 13:22 9.65037 123.81625 1567 ft 151 kts 208°
2026-04-24 13:22 9.64173 123.81104 1407 ft 140 kts 206°
2026-04-24 13:22 9.63341 123.80615 1204 ft 138 kts 208°
2026-04-24 13:22 9.62519 123.80122 996 ft 136 kts 208°
2026-04-24 13:23 9.61717 123.79635 809 ft 132 kts 210°
2026-04-24 13:23 9.60934 123.79179 656 ft 127 kts 208°
2026-04-24 13:23 9.60164 123.78705 490 ft 136 kts 212°
2026-04-24 13:23 9.59351 123.78193 454 ft 143 kts 222°
2026-04-24 13:24 9.58459 123.77644 687 ft 158 kts 209°
2026-04-24 13:24 9.57556 123.77040 1227 ft 157 kts 210°
2026-04-24 13:24 9.56640 123.76383 1636 ft 171 kts 210°
2026-04-24 13:24 9.55535 123.75618 1628 ft 214 kts 208°
2026-04-24 13:25 9.54253 123.74787 2040 ft 213 kts 208°
2026-04-24 13:25 9.53040 123.74007 2792 ft 202 kts 199°
2026-04-24 13:25 9.51707 123.73779 3353 ft 193 kts 163°
2026-04-24 13:25 9.50536 123.74340 3832 ft 187 kts 129°
2026-04-24 13:26 9.49931 123.75454 3929 ft 179 kts 92°
2026-04-24 13:26 9.50183 123.76644 3938 ft 176 kts 54°
2026-04-24 13:26 9.51120 123.77394 3941 ft 180 kts 20°
2026-04-24 13:26 9.52350 123.77705 3941 ft 185 kts 11°
2026-04-24 13:27 9.53627 123.77920 3943 ft 186 kts 10°
2026-04-24 13:27 9.54912 123.78112 3943 ft 187 kts
2026-04-24 13:27 9.56221 123.78291 3944 ft 188 kts
2026-04-24 13:27 9.57514 123.78314 3942 ft 188 kts
2026-04-24 13:28 9.58817 123.78358 3928 ft 186 kts 18°
2026-04-24 13:28 9.59838 123.79082 3940 ft 181 kts 58°
2026-04-24 13:28 9.60112 123.80300 3929 ft 183 kts 97°
2026-04-24 13:28 9.59527 123.81444 3931 ft 190 kts 134°
2026-04-24 13:29 9.58317 123.82010 3936 ft 200 kts 171°
2026-04-24 13:29 9.56973 123.81666 4045 ft 206 kts 214°
2026-04-24 13:29 9.56131 123.80500 4398 ft 212 kts 239°
2026-04-24 13:29 9.55373 123.79208 4396 ft 211 kts 233°
2026-04-24 13:30 9.54555 123.77985 4202 ft 209 kts 232°
2026-04-24 13:30 9.53730 123.76778 3994 ft 206 kts 232°
2026-04-24 13:30 9.52917 123.75575 3942 ft 208 kts 233°
2026-04-24 13:30 9.52096 123.74351 3946 ft 210 kts 233°
2026-04-24 13:31 9.51285 123.73118 3941 ft 212 kts 239°
2026-04-24 13:31 9.50993 123.71678 3935 ft 212 kts 279°
2026-04-24 13:31 9.51597 123.70366 3939 ft 206 kts 318°
2026-04-24 13:31 9.52818 123.69723 3942 ft 197 kts 356°
2026-04-24 13:32 9.54108 123.69992 3940 ft 189 kts 36°
2026-04-24 13:32 9.54971 123.70967 3940 ft 187 kts 66°
2026-04-24 13:32 9.55254 123.72250 3949 ft 188 kts 82°
2026-04-24 13:32 9.55508 123.73543 3952 ft 187 kts 68°
2026-04-24 13:33 9.56025 123.74753 3947 ft 188 kts 64°
2026-04-24 13:33 9.56643 123.75922 3948 ft 189 kts 58°
2026-04-24 13:33 9.57353 123.77044 3944 ft 189 kts 57°
2026-04-24 13:33 9.58101 123.78144 3945 ft 189 kts 55°
2026-04-24 13:34 9.58867 123.79220 3833 ft 187 kts 54°
2026-04-24 13:34 9.59376 123.79924 3663 ft 188 kts 54°
2026-04-24 13:34 9.60390 123.81333 3432 ft 182 kts 54°
2026-04-24 13:34 9.61122 123.82362 3239 ft 179 kts 54°
2026-04-24 13:35 9.61843 123.83383 3026 ft 178 kts 54°
2026-04-24 13:35 9.62558 123.84400 2801 ft 177 kts 54°
2026-04-24 13:35 9.63026 123.85070 2700 ft 176 kts 54°
2026-04-24 13:35 9.63958 123.86428 2652 ft 175 kts 54°
2026-04-24 13:36 9.64416 123.87101 2651 ft 175 kts 54°
2026-04-24 13:36 9.65344 123.88462 2654 ft 175 kts 56°
2026-04-24 13:36 9.65801 123.89131 2650 ft 174 kts 56°
2026-04-24 13:36 9.66714 123.90468 2655 ft 174 kts 55°
2026-04-24 13:37 9.67182 123.91150 2654 ft 174 kts 54°
2026-04-24 13:37 9.67874 123.92154 2654 ft 174 kts 55°
2026-04-24 13:37 9.68807 123.93471 2656 ft 174 kts 48°
2026-04-24 13:37 9.69412 123.94026 2658 ft 174 kts 37°
2026-04-24 13:38 9.70504 123.94586 2656 ft 179 kts 20°
2026-04-24 13:38 9.71745 123.94772 2657 ft 184 kts
2026-04-24 13:38 9.73016 123.94538 2658 ft 189 kts 344°
2026-04-24 13:38 9.74173 123.93871 2655 ft 195 kts 324°
2026-04-24 13:39 9.75063 123.92811 2659 ft 202 kts 303°
2026-04-24 13:39 9.75539 123.91461 2658 ft 207 kts 281°
2026-04-24 13:39 9.75499 123.90002 2655 ft 210 kts 257°
2026-04-24 13:39 9.74929 123.88645 2657 ft 211 kts 233°
2026-04-24 13:40 9.73923 123.87614 2661 ft 209 kts 212°
2026-04-24 13:40 9.72689 123.86813 2624 ft 207 kts 210°
2026-04-24 13:40 9.71490 123.86043 2373 ft 207 kts 209°
2026-04-24 13:40 9.70270 123.85256 2080 ft 202 kts 210°
2026-04-24 13:41 9.69140 123.84523 1869 ft 188 kts 210°
2026-04-24 13:41 9.68071 123.83827 1643 ft 174 kts 211°
2026-04-24 13:41 9.67085 123.83185 1385 ft 164 kts 210°
2026-04-24 13:41 9.66141 123.82569 1184 ft 160 kts 211°
2026-04-24 13:42 9.65234 123.81976 1105 ft 148 kts 210°
2026-04-24 13:42 9.64388 123.81410 1101 ft 144 kts 211°
2026-04-24 13:42 9.63559 123.80850 1103 ft 143 kts 208°
2026-04-24 13:42 9.62640 123.80529 1107 ft 138 kts 182°
2026-04-24 13:43 9.61687 123.80474 1103 ft 137 kts 176°
2026-04-24 13:43 9.60738 123.80470 1099 ft 136 kts 176°
2026-04-24 13:43 9.59781 123.80471 1094 ft 139 kts 181°
2026-04-24 13:43 9.58853 123.80186 1083 ft 141 kts 203°
2026-04-24 13:44 9.57977 123.79733 1075 ft 141 kts 205°
2026-04-24 13:44 9.57122 123.79256 1067 ft 140 kts 206°
2026-04-24 13:44 9.56271 123.78771 1062 ft 141 kts 207°
2026-04-24 13:44 9.55412 123.78287 1061 ft 140 kts 207°
2026-04-24 13:45 9.54558 123.77807 1042 ft 140 kts 207°
2026-04-24 13:45 9.53752 123.77248 968 ft 143 kts 230°
2026-04-24 13:45 9.53514 123.76302 850 ft 145 kts 287°
2026-04-24 13:45 9.54107 123.75551 808 ft 132 kts 337°
2026-04-24 13:46 9.54928 123.75588 698 ft 121 kts 28°
2026-04-24 13:46 9.55650 123.76040 420 ft 123 kts 25°
2026-04-24 13:46 9.56395 123.76474 123 ft 122 kts 27°
2026-04-24 13:46 9.57077 123.76877 52 ft 99 kts 31°
2026-04-24 13:47 9.57334 123.77031 53 ft 0 kts 31°